Time,TemperatureF,DewpointF,PressureIn,WindDirection,WindDirectionDegrees,WindSpeedMPH,WindSpeedGustMPH,Humidity,HourlyPrecipIn,Conditions,Clouds,dailyrainin,SoftwareType,DateUTC
2013-08-09 00:02:00,65.7,58.0,30.04,West,270,0.0,0.0,76,0.00,,,0.00,weatherlink.com 1.10,2013-08-09 05:02:00,
2013-08-09 00:17:00,65.6,58.0,30.05,West,269,0.0,0.0,75,0.00,,,0.00,weatherlink.com 1.10,2013-08-09 05:17:00,
2013-08-09 00:32:00,65.7,58.0,30.05,West,270,0.0,0.0,76,0.00,,,0.00,weatherlink.com 1.10,2013-08-09 05:32:00,
2013-08-09 00:47:00,66.1,58.0,30.05,West,270,0.0,1.0,76,0.00,,,0.00,weatherlink.com 1.10,2013-08-09 05:47:00,
2013-08-09 01:02:00,66.5,58.0,30.05,West,270,0.0,0.0,74,0.00,,,0.00,weatherlink.com 1.10,2013-08-09 06:02:00,
2013-08-09 01:17:00,66.5,58.0,30.04,West,269,0.0,3.0,73,0.00,,,0.00,weatherlink.com 1.10,2013-08-09 06:17:00,
2013-08-09 01:32:00,66.6,57.0,30.04,West,269,0.0,3.0,72,0.00,,,0.00,weatherlink.com 1.10,2013-08-09 06:32:00,
2013-08-09 01:47:00,66.8,57.0,30.04,West,270,0.0,1.0,72,0.00,,,0.00,weatherlink.com 1.10,2013-08-09 06:47:00,
2013-08-09 02:02:00,66.9,58.0,30.04,West,269,0.0,1.0,72,0.00,,,0.00,weatherlink.com 1.10,2013-08-09 07:02:00,
2013-08-09 02:17:00,66.4,58.0,30.04,West,270,0.0,1.0,73,0.00,,,0.00,weatherlink.com 1.10,2013-08-09 07:17:00,
2013-08-09 02:32:00,66.3,58.0,30.04,West,270,0.0,3.0,74,0.00,,,0.00,weatherlink.com 1.10,2013-08-09 07:32:00,
2013-08-09 02:47:00,66.2,58.0,30.03,West,269,0.0,3.0,75,0.00,,,0.00,weatherlink.com 1.10,2013-08-09 07:47:00,
2013-08-09 03:02:00,66.1,58.0,30.04,West,269,0.0,4.0,75,0.00,,,0.00,weatherlink.com 1.10,2013-08-09 08:02:00,
2013-08-09 03:17:00,66.2,58.0,30.04,West,269,0.0,3.0,76,0.00,,,0.00,weatherlink.com 1.10,2013-08-09 08:17:00,
2013-08-09 03:32:00,66.4,58.0,30.04,West,268,0.0,1.0,75,0.00,,,0.00,weatherlink.com 1.10,2013-08-09 08:32:00,
2013-08-09 03:47:00,66.6,59.0,30.04,West,271,0.0,8.0,76,0.00,,,0.00,weatherlink.com 1.10,2013-08-09 08:47:00,
2013-08-09 04:02:00,66.6,59.0,30.03,West,275,4.0,6.0,76,0.00,,,0.00,weatherlink.com 1.10,2013-08-09 09:02:00,
2013-08-09 04:17:00,66.0,58.0,30.03,West,277,2.0,6.0,75,0.00,,,0.00,weatherlink.com 1.10,2013-08-09 09:17:00,
2013-08-09 04:32:00,65.2,59.0,30.04,West,277,0.0,3.0,79,0.00,,,0.00,weatherlink.com 1.10,2013-08-09 09:32:00,
2013-08-09 04:47:00,64.6,58.0,30.03,WNW,288,1.0,4.0,80,0.00,,,0.00,weatherlink.com 1.10,2013-08-09 09:47:00,
2013-08-09 05:02:00,64.3,59.0,30.04,WNW,299,2.0,4.0,82,0.00,,,0.00,weatherlink.com 1.10,2013-08-09 10:02:00,
2013-08-09 05:17:00,63.9,58.0,30.04,WNW,302,0.0,3.0,82,0.00,,,0.00,weatherlink.com 1.10,2013-08-09 10:17:00,
2013-08-09 05:32:00,63.8,59.0,30.04,WNW,302,0.0,2.0,84,0.00,,,0.00,weatherlink.com 1.10,2013-08-09 10:32:00,
2013-08-09 05:47:00,63.9,59.0,30.05,WNW,302,1.0,4.0,84,0.00,,,0.00,weatherlink.com 1.10,2013-08-09 10:47:00,
2013-08-09 06:02:00,63.8,59.0,30.05,WNW,302,0.0,3.0,85,0.00,,,0.00,weatherlink.com 1.10,2013-08-09 11:02:00,
2013-08-09 06:17:00,63.5,59.0,30.06,NW,304,1.0,5.0,86,0.00,,,0.00,weatherlink.com 1.10,2013-08-09 11:17:00,
2013-08-09 06:32:00,63.3,59.0,30.06,NW,305,0.0,5.0,87,0.00,,,0.00,weatherlink.com 1.10,2013-08-09 11:32:00,
2013-08-09 06:47:00,63.0,59.0,30.07,NW,306,0.0,4.0,87,0.00,,,0.00,weatherlink.com 1.10,2013-08-09 11:47:00,
2013-08-09 07:02:00,62.8,59.0,30.06,NW,308,0.0,3.0,87,0.00,,,0.00,weatherlink.com 1.10,2013-08-09 12:02:00,
2013-08-09 07:17:00,62.7,59.0,30.06,NW,310,4.0,6.0,87,0.00,,,0.00,weatherlink.com 1.10,2013-08-09 12:17:00,
2013-08-09 07:32:00,63.0,59.0,30.07,NW,315,1.0,9.0,86,0.00,,,0.00,weatherlink.com 1.10,2013-08-09 12:32:00,
2013-08-09 07:47:00,64.0,59.0,30.08,NW,318,2.0,5.0,83,0.00,,,0.00,weatherlink.com 1.10,2013-08-09 12:47:00,
2013-08-09 08:02:00,65.0,59.0,30.08,NW,318,0.0,4.0,80,0.00,,,0.00,weatherlink.com 1.10,2013-08-09 13:02:00,
2013-08-09 08:17:00,66.1,59.0,30.08,NW,318,2.0,5.0,78,0.00,,,0.00,weatherlink.com 1.10,2013-08-09 13:17:00,
2013-08-09 08:32:00,66.7,59.0,30.09,NW,325,0.0,6.0,76,0.00,,,0.00,weatherlink.com 1.10,2013-08-09 13:32:00,
2013-08-09 08:47:00,67.8,59.0,30.09,NW,325,3.0,5.0,74,0.00,,,0.00,weatherlink.com 1.10,2013-08-09 13:47:00,
2013-08-09 09:03:00,69.2,60.0,30.09,North,349,2.0,6.0,72,0.00,,,0.00,weatherlink.com 1.10,2013-08-09 14:03:00,
2013-08-09 09:18:00,69.4,60.0,30.09,NNE,13,3.0,5.0,72,0.00,,,0.00,weatherlink.com 1.10,2013-08-09 14:18:00,
2013-08-09 09:33:00,70.2,60.0,30.09,North,360,2.0,8.0,71,0.00,,,0.00,weatherlink.com 1.10,2013-08-09 14:33:00,
2013-08-09 09:48:00,69.9,60.0,30.09,NNW,331,0.0,11.0,70,0.00,,,0.00,weatherlink.com 1.10,2013-08-09 14:48:00,
2013-08-09 10:03:00,71.4,60.0,30.09,NW,323,0.0,5.0,67,0.00,,,0.00,weatherlink.com 1.10,2013-08-09 15:03:00,
2013-08-09 10:18:00,72.2,58.0,30.09,NW,320,0.0,8.0,62,0.00,,,0.00,weatherlink.com 1.10,2013-08-09 15:18:00,
2013-08-09 10:33:00,72.7,58.0,30.09,NNW,341,2.0,8.0,61,0.00,,,0.00,weatherlink.com 1.10,2013-08-09 15:33:00,
2013-08-09 10:48:00,73.2,55.0,30.09,NW,322,10.0,13.0,54,0.00,,,0.00,weatherlink.com 1.10,2013-08-09 15:48:00,
2013-08-09 11:03:00,73.1,54.0,30.09,NNW,330,2.0,6.0,52,0.00,,,0.00,weatherlink.com 1.10,2013-08-09 16:03:00,
2013-08-09 11:18:00,73.9,53.0,30.10,NE,37,2.0,13.0,49,0.00,,,0.00,weatherlink.com 1.10,2013-08-09 16:18:00,
2013-08-09 11:33:00,74.5,55.0,30.10,NNW,348,3.0,13.0,50,0.00,,,0.00,weatherlink.com 1.10,2013-08-09 16:33:00,
2013-08-09 11:48:00,74.7,54.0,30.10,North,355,0.0,9.0,49,0.00,,,0.00,weatherlink.com 1.10,2013-08-09 16:48:00,
2013-08-09 12:03:00,74.8,53.0,30.10,NNW,331,0.0,10.0,47,0.00,,,0.00,weatherlink.com 1.10,2013-08-09 17:03:00,
2013-08-09 12:18:00,75.4,55.0,30.09,NNW,332,4.0,8.0,49,0.00,,,0.00,weatherlink.com 1.10,2013-08-09 17:18:00,
2013-08-09 12:33:00,75.7,53.0,30.09,NW,310,4.0,12.0,46,0.00,,,0.00,weatherlink.com 1.10,2013-08-09 17:33:00,
2013-08-09 12:48:00,75.4,53.0,30.10,WNW,286,8.0,13.0,45,0.00,,,0.00,weatherlink.com 1.10,2013-08-09 17:48:00,
2013-08-09 13:03:00,75.4,53.0,30.10,North,5,1.0,13.0,45,0.00,,,0.00,weatherlink.com 1.10,2013-08-09 18:03:00,
2013-08-09 13:18:00,75.4,53.0,30.10,NNW,346,8.0,13.0,46,0.00,,,0.00,weatherlink.com 1.10,2013-08-09 18:18:00,
2013-08-09 13:33:00,75.7,54.0,30.10,NW,313,2.0,12.0,47,0.00,,,0.00,weatherlink.com 1.10,2013-08-09 18:33:00,
2013-08-09 13:48:00,75.6,54.0,30.10,North,360,0.0,9.0,48,0.00,,,0.00,weatherlink.com 1.10,2013-08-09 18:48:00,
2013-08-09 14:03:00,77.0,55.0,30.10,North,360,3.0,10.0,47,0.00,,,0.00,weatherlink.com 1.10,2013-08-09 19:03:00,
2013-08-09 14:18:00,76.7,56.0,30.10,NNW,343,1.0,10.0,49,0.00,,,0.00,weatherlink.com 1.10,2013-08-09 19:18:00,
2013-08-09 14:33:00,76.6,55.0,30.10,West,275,0.0,10.0,48,0.00,,,0.00,weatherlink.com 1.10,2013-08-09 19:33:00,
2013-08-09 14:48:00,76.6,55.0,30.10,NNW,329,3.0,10.0,47,0.00,,,0.00,weatherlink.com 1.10,2013-08-09 19:48:00,
2013-08-09 15:03:00,76.6,55.0,30.10,NNW,332,2.0,10.0,48,0.00,,,0.00,weatherlink.com 1.10,2013-08-09 20:03:00,
2013-08-09 15:18:00,76.3,56.0,30.10,NNW,333,0.0,14.0,49,0.00,,,0.00,weatherlink.com 1.10,2013-08-09 20:18:00,
2013-08-09 15:33:00,76.7,55.0,30.10,WNW,295,2.0,10.0,47,0.00,,,0.00,weatherlink.com 1.10,2013-08-09 20:33:00,
2013-08-09 15:48:00,77.4,56.0,30.10,NNW,342,2.0,11.0,47,0.00,,,0.00,weatherlink.com 1.10,2013-08-09 20:48:00,
2013-08-09 16:03:00,77.6,56.0,30.09,NNW,341,4.0,9.0,47,0.00,,,0.00,weatherlink.com 1.10,2013-08-09 21:03:00,
2013-08-09 16:18:00,76.7,57.0,30.10,NW,313,3.0,8.0,50,0.00,,,0.00,weatherlink.com 1.10,2013-08-09 21:18:00,
2013-08-09 16:33:00,76.2,56.0,30.10,NW,315,1.0,10.0,50,0.00,,,0.00,weatherlink.com 1.10,2013-08-09 21:33:00,
2013-08-09 16:48:00,76.6,55.0,30.10,WNW,301,1.0,10.0,48,0.00,,,0.00,weatherlink.com 1.10,2013-08-09 21:48:00,
2013-08-09 17:03:00,75.6,56.0,30.09,NW,313,0.0,11.0,50,0.00,,,0.00,weatherlink.com 1.10,2013-08-09 22:03:00,
2013-08-09 17:18:00,75.9,57.0,30.10,NNW,342,1.0,10.0,52,0.00,,,0.00,weatherlink.com 1.10,2013-08-09 22:18:00,
2013-08-09 17:33:00,76.0,54.0,30.10,West,275,3.0,14.0,47,0.00,,,0.00,weatherlink.com 1.10,2013-08-09 22:33:00,
2013-08-09 17:48:00,75.1,55.0,30.10,WSW,257,1.0,13.0,50,0.00,,,0.00,weatherlink.com 1.10,2013-08-09 22:48:00,
2013-08-09 18:03:00,75.3,55.0,30.10,NNW,345,3.0,10.0,50,0.00,,,0.00,weatherlink.com 1.10,2013-08-09 23:03:00,
2013-08-09 18:18:00,74.9,55.0,30.10,NNW,344,3.0,10.0,50,0.00,,,0.00,weatherlink.com 1.10,2013-08-09 23:18:00,
2013-08-09 18:33:00,73.9,56.0,30.10,WSW,250,1.0,10.0,54,0.00,,,0.00,weatherlink.com 1.10,2013-08-09 23:33:00,
2013-08-09 18:48:00,73.9,56.0,30.10,WNW,290,0.0,9.0,53,0.00,,,0.00,weatherlink.com 1.10,2013-08-09 23:48:00,
2013-08-09 19:03:00,73.5,56.0,30.10,NW,318,2.0,4.0,55,0.00,,,0.00,weatherlink.com 1.10,2013-08-10 00:03:00,
2013-08-09 19:18:00,72.9,56.0,30.11,NNW,333,0.0,9.0,56,0.00,,,0.00,weatherlink.com 1.10,2013-08-10 00:18:00,
2013-08-09 19:33:00,72.2,56.0,30.11,NNW,327,0.0,6.0,58,0.00,,,0.00,weatherlink.com 1.10,2013-08-10 00:33:00,
2013-08-09 19:48:00,71.3,55.0,30.11,NNW,341,3.0,9.0,57,0.00,,,0.00,weatherlink.com 1.10,2013-08-10 00:48:00,
2013-08-09 20:03:00,70.5,54.0,30.11,NNW,329,3.0,10.0,57,0.00,,,0.00,weatherlink.com 1.10,2013-08-10 01:03:00,
2013-08-09 20:18:00,69.6,55.0,30.12,NNW,329,1.0,8.0,60,0.00,,,0.00,weatherlink.com 1.10,2013-08-10 01:18:00,
2013-08-09 20:33:00,68.6,55.0,30.12,NNW,329,0.0,5.0,63,0.00,,,0.00,weatherlink.com 1.10,2013-08-10 01:33:00,
2013-08-09 20:48:00,67.7,55.0,30.12,NNW,329,0.0,3.0,64,0.00,,,0.00,weatherlink.com 1.10,2013-08-10 01:48:00,
2013-08-09 21:03:00,67.1,54.0,30.13,NNW,329,3.0,5.0,64,0.00,,,0.00,weatherlink.com 1.10,2013-08-10 02:03:00,
2013-08-09 21:18:00,66.5,54.0,30.14,NW,326,0.0,5.0,65,0.00,,,0.00,weatherlink.com 1.10,2013-08-10 02:18:00,
2013-08-09 21:33:00,65.8,54.0,30.14,NW,325,0.0,5.0,66,0.00,,,0.00,weatherlink.com 1.10,2013-08-10 02:33:00,
2013-08-09 21:48:00,65.2,53.0,30.14,NW,325,0.0,1.0,66,0.00,,,0.00,weatherlink.com 1.10,2013-08-10 02:48:00,
2013-08-09 22:04:00,64.5,54.0,30.15,NW,325,0.0,2.0,68,0.00,,,0.00,weatherlink.com 1.10,2013-08-10 03:04:00,
2013-08-09 22:19:00,63.9,53.0,30.15,NW,325,0.0,4.0,68,0.00,,,0.00,weatherlink.com 1.10,2013-08-10 03:19:00,
2013-08-09 22:34:00,63.5,53.0,30.15,NW,325,0.0,1.0,68,0.00,,,0.00,weatherlink.com 1.10,2013-08-10 03:34:00,
2013-08-09 22:49:00,62.8,52.0,30.16,NW,325,0.0,2.0,69,0.00,,,0.00,weatherlink.com 1.10,2013-08-10 03:49:00,
2013-08-09 23:04:00,62.4,52.0,30.16,NW,325,0.0,3.0,69,0.00,,,0.00,weatherlink.com 1.10,2013-08-10 04:04:00,
2013-08-09 23:19:00,62.4,52.0,30.16,NW,325,0.0,3.0,68,0.00,,,0.00,weatherlink.com 1.10,2013-08-10 04:19:00,
2013-08-09 23:34:00,62.1,51.0,30.17,NW,325,0.0,1.0,68,0.00,,,0.00,weatherlink.com 1.10,2013-08-10 04:34:00,
2013-08-09 23:49:00,61.6,51.0,30.17,NW,325,2.0,3.0,69,0.00,,,0.00,weatherlink.com 1.10,2013-08-10 04:49:00,